Vertical_Velocity
-0 9 3 1 -10 -11 -5 -3 8 -6 -1 1 -0 1 -3 -2 -3 -0 -1 -5 -3 1 1 -3 -0 -3 0 -1 0 3 -2 -4 -2 1 -0 1 2 1 -0 -1 1 -2 -2 1 1
4 -4 3 -1 -0 -5 -5 -6 -5 77 5 4 -5 2 -2 -1 -4 -4 -0 -2 -2 -2 -3 -1 -0 0 0 -0 -1 -2 2 1 -3 -3 -3 -1 3 2 -1 -3 -2 -2 -3 -4 -3
7 1 -9 -3 -0 -5 -6 -10 1 -11 -2 3 1 2 -1 -1 2 -2 -1 -2 -1 -2 -2 0 2 1 -2 -2 -2 -2 -3 1 -2 -3 -2 -3 -2 -0 -1 -2 1 0 -2 -3 -6
-2 0 2 -10 -1 3 -1 -3 -4 6 15 11 4 -0 0 -1 -2 -0 0 1 1 -3 -3 -2 -1 -1 -1 0 -0 1 -1 -1 0 -2 -4 -6 -5 -9 -2 6 -2 -2 -4 -5 -2
-3 2 4 -2 0 -1 3 6 -2 3 1 7 2 -3 -0 -4 -4 2 -1 -3 -1 -1 0 -0 2 -1 0 -2 2 0 -3 -5 -2 -1 -3 -1 -3 -7 -2 -1 -1 -2 -3 -3 -2
-1 -4 -0 -1 -5 1 2 6 -7 -5 13 -3 4 -2 -0 1 -1 -3 -3 -0 2 0 -1 -4 0 1 -7 0 -1 -0 2 -1 -0 -2 -4 -4 -2 -4 5 -6 -6 -8 -0 -2 -5
-3 -4 1 1 2 2 1 3 -9 3 10 -3 -3 -3 -3 -0 -1 -3 -3 -1 -3 -3 -1 -4 -2 -2 -3 -1 -4 -1 -2 -3 -4 -3 -3 -4 -4 -4 0 -4 -1 1 -2 -3 -2
-1 -0 1 3 -0 -0 7 4 7 -1 -7 3 2 3 -3 -2 -5 2 -6 -0 -2 0 1 -2 -3 -3 1 -3 -2 -3 -3 -4 -2 -3 -1 1 -25 11 -5 -10 -1 -0 -4 -7 -2
-3 0 -0 2 -0 -2 7 1 17 6 6 6 -1 1 -4 -3 -2 4 -1 2 -0 -2 -1 -4 -5 -0 -2 -2 -2 -4 -1 -3 -3 -0 -1 -1 -6 19 0 -6 -3 -4 -1 -4 -5
-4 1 2 11 6 31 -2 -3 8 0 -6 -2 -6 0 -4 0 -0 -1 0 -2 -6 -3 -3 -1 -1 -3 -5 -2 -2 -1 -2 -3 -2 -2 -3 -0 -8 -8 5 -11 -3 -5 -2 -6 -3
5 -0 20 -19 -5 11 -14 4 1 -3 3 1 -1 -3 -3 -1 0 -3 -2 -1 -4 -2 -3 -3 -4 -2 0 1 -0 -1 -2 -3 6 2 -8 -3 -8 -2 -1 -3 -2 -1 -6 -5 -8
-3 -7 0 5 10 -1 1 -3 -1 -8 -9 -7 -4 3 -5 1 1 -0 0 -2 -7 -5 -2 -2 0 1 0 -0 1 0 -1 -0 -2 -2 -3 -2 -11 -1 -2 -4 -1 -3 -0 -6 -7
-3 -1 -4 -2 -1 -2 2 -6 -4 -2 -11 -2 4 -3 -1 -1 -2 -4 -3 -3 -2 -0 1 1 -0 -1 0 -1 -2 -1 -2 2 -2 -3 -2 -5 -4 0 2 -5 -2 -1 -7 -5 -6
0 -5 -3 -0 -3 -4 2 2 0 1 -6 -4 -4 -2 -1 -3 -1 -2 -2 -1 -3 -0 2 -1 -1 -3 -2 -5 -2 -3 -0 -1 -1 5 -3 7 -9 -5 -2 0 2 -6 -2 -2 -4
-5 -4 0 1 -1 -2 -2 1 3 -2 -11 -3 -1 0 3 -2 -6 -3 1 1 1 -1 -4 -3 -2 -2 -2 -2 -2 2 0 1 0 4 10 -3 7 2 -0 -6 -7 -0 2 -2 -5
1 -3 -5 -2 -3 -0 -2 -3 -4 -5 -8 -3 -1 -2 -6 -1 2 0 -2 -1 -1 -3 -1 -2 -2 -2 1 0 -2 2 -4 -1 -0 3 2 1 0 2 -9 -10 2 2 1 1 -3
-1 -0 -0 -1 -7 -3 -3 -1 -2 -8 -1 0 -1 -1 -0 -3 -2 -2 -2 -2 -1 -3 -1 -2 -0 -2 -1 -1 -1 1 1 -2 -2 1 -4 3 1 -9 1 -1 7 1 -1 7 -1
-2 -3 0 -2 0 -0 0 1 -9 -0 -0 -2 -1 -2 -3 1 0 -2 -0 0 -1 -2 -3 -4 -6 -1 -2 1 1 -2 0 1 1 0 -2 1 -2 -0 8 3 7 1 26 5 7
-6 -2 -0 -0 -1 -0 1 -2 -0 0 -1 -3 -4 -2 1 0 -0 -1 2 -1 -2 -1 -1 -3 -4 2 0 2 2 1 0 -2 3 1 3 -1 2 3 6 4 3 14 15 11 4
-4 -6 -1 -1 -0 -3 -1 -4 -1 -3 0 3 3 1 -1 0 1 0 0 -3 -2 -0 -1 -0 -6 -1 2 0 1 1 1 -0 -1 -1 -1 -1 -0 3 -3 -2 8 3 6 0 9
-3 -1 -1 1 -0 2 -3 -7 -2 -3 -2 -2 -1 -0 1 0 -2 -2 -1 -3 -3 1 -1 -1 0 2 -1 -1 1 0 1 0 2 -0 1 -0 -3 -6 -6 -3 -4 -4 -7 -10 -2
3 -7 -9 -4 -3 0 1 1 -0 -0 2 0 -4 -3 -1 -1 -1 -2 -1 0 -0 -1 -0 1 -1 -3 -0 2 0 -2 2 1 0 1 1 1 -6 -1 -2 0 2 -1 -3 7 1
-2 -4 0 -5 -0 1 -0 -0 -1 1 -2 -3 -0 -1 0 2 1 0 1 1 0 1 1 -0 0 -5 3 -2 3 2 -2 1 1 1 -2 0 -3 -0 -5 2 -2 -4 -0 1 7
-3 -1 -2 -3 -8 -4 -1 -2 -0 1 -1 0 1 0 0 -1 -1 -1 -1 -0 -1 -0 1 1 1 -0 -5 -1 1 0 4 0 1 1 -1 -4 -4 -4 0 -3 -0 -2 -3 -3 -0
-4 -3 -5 -5 -2 -1 -8 -0 -1 -3 -1 1 1 1 -1 -2 -1 -2 0 1 -2 -2 -2 0 -4 -1 1 1 -1 -3 -0 3 0 1 -2 -1 -5 -3 -3 -5 -4 -1 -1 -3 3
2 -2 -3 -5 -3 -1 -2 -5 -5 1 1 -3 -4 -3 -1 -1 -0 -3 -0 3 5 3 2 1 -2 -1 -9 -2 -2 -4 3 2 1 -1 -4 -2 -4 -2 -2 -0 0 -1 -4 -2 -2
1 2 1 -0 -0 -3 -1 0 -5 -11 -5 -1 -0 -2 -2 -2 -2 -1 0 1 -0 1 3 2 1 0 -4 2 3 -3 -2 -1 3 0 2 -3 -2 -2 -2 -0 -2 -1 -1 -2 -2
Height
3023 3027 3031 3034 3042 3050 3058 3064 3070 3074 3078 3082 3087 3091 3092 3095 3097 3099 3101 3104 3106 3106 3108 3110 3111 3111 3112 3113 3115 3116 3117 3116 3118 3119 3118 3120 3120 3120 3121 3123 3125 3125 3127 3129 3130
3020 3023 3027 3030 3036 3045 3054 3062 3068 3067 3075 3079 3084 3089 3091 3093 3096 3098 3101 3102 3104 3104 3105 3107 3108 3109 3110 3111 3112 3113 3113 3112 3114 3115 3115 3116 3116 3116 3116 3116 3118 3119 3122 3122 3124
3018 3021 3024 3029 3031 3039 3049 3059 3065 3067 3072 3078 3083 3086 3090 3093 3095 3096 3098 3101 3101 3102 3103 3104 3105 3105 3107 3108 3110 3109 3109 3110 3110 3111 3111 3112 3112 3109 3108 3109 3113 3112 3114 3117 3118
3016 3020 3023 3028 3030 3035 3043 3054 3063 3068 3072 3074 3081 3085 3089 3092 3095 3095 3096 3098 3099 3100 3101 3102 3103 3103 3104 3106 3107 3107 3106 3107 3107 3108 3106 3106 3105 3105 3103 3102 3103 3106 3106 3108 3110
3015 3018 3022 3026 3028 3033 3040 3049 3059 3068 3069 3072 3078 3085 3089 3091 3093 3094 3095 3097 3098 3099 3100 3100 3101 3101 3103 3104 3105 3103 3104 3104 3104 3103 3101 3099 3101 3097 3094 3099 3099 3098 3098 3099 3102
3016 3020 3021 3026 3028 3032 3038 3046 3055 3065 3066 3073 3080 3085 3088 3091 3091 3093 3094 3095 3097 3097 3098 3099 3100 3100 3101 3102 3103 3103 3101 3100 3101 3100 3098 3094 3094 3091 3093 3091 3092 3092 3092 3091 3091
3017 3022 3023 3025 3028 3032 3038 3046 3055 3061 3066 3074 3080 3083 3087 3089 3089 3092 3094 3096 3096 3096 3096 3098 3099 3099 3100 3099 3099 3099 3099 3097 3097 3096 3093 3089 3085 3085 3087 3086 3083 3082 3081 3080 3081
3022 3023 3024 3025 3029 3035 3041 3049 3058 3063 3070 3074 3079 3083 3085 3087 3089 3092 3093 3094 3094 3094 3095 3096 3097 3097 3098 3097 3097 3096 3095 3093 3093 3091 3088 3085 3076 3080 3081 3078 3076 3073 3071 3070 3070
3026 3026 3027 3029 3033 3038 3044 3051 3059 3066 3072 3078 3082 3084 3086 3088 3090 3091 3093 3094 3094 3094 3094 3094 3096 3095 3095 3095 3095 3093 3091 3089 3089 3086 3083 3081 3073 3078 3075 3072 3066 3065 3063 3061 3059
3031 3030 3031 3032 3036 3039 3046 3053 3061 3070 3076 3080 3082 3087 3087 3090 3091 3092 3093 3092 3092 3092 3093 3093 3093 3093 3094 3093 3092 3089 3087 3085 3084 3084 3078 3076 3069 3070 3069 3062 3059 3058 3056 3053 3050
3033 3034 3034 3035 3036 3042 3049 3057 3067 3074 3078 3080 3083 3086 3088 3091 3092 3092 3092 3091 3091 3092 3092 3092 3093 3092 3091 3090 3088 3086 3085 3082 3081 3079 3073 3072 3065 3063 3060 3057 3055 3052 3050 3046 3042
3041 3039 3042 3045 3049 3053 3058 3063 3069 3074 3077 3082 3087 3090 3091 3091 3091 3091 3092 3093 3092 3092 3092 3092 3091 3090 3088 3087 3085 3083 3081 3080 3078 3076 3072 3066 3059 3056 3056 3053 3050 3046 3043 3040 3036
3047 3049 3052 3055 3058 3062 3066 3070 3074 3078 3080 3088 3090 3091 3093 3093 3092 3092 3093 3092 3093 3093 3092 3091 3091 3089 3088 3087 3084 3082 3080 3078 3077 3074 3070 3062 3053 3052 3052 3050 3045 3041 3037 3035 3030
3057 3058 3060 3064 3068 3068 3073 3077 3079 3081 3085 3094 3094 3096 3096 3094 3094 3094 3094 3096 3094 3093 3092 3092 3090 3089 3087 3086 3085 3080 3078 3077 3074 3072 3069 3065 3057 3050 3048 3047 3041 3035 3033 3031 3027
3066 3065 3066 3070 3071 3074 3079 3081 3082 3085 3091 3101 3098 3097 3095 3096 3097 3096 3096 3095 3094 3093 3094 3093 3090 3089 3088 3086 3083 3081 3077 3074 3071 3070 3068 3062 3061 3049 3047 3043 3038 3033 3030 3028 3025
3074 3074 3075 3077 3078 3081 3083 3083 3085 3089 3097 3099 3098 3097 3098 3097 3097 3098 3097 3097 3095 3093 3092 3092 3090 3088 3087 3085 3081 3078 3074 3071 3069 3069 3067 3061 3060 3050 3047 3043 3038 3034 3030 3027 3022
3080 3080 3082 3084 3085 3086 3085 3086 3087 3087 3099 3100 3099 3099 3098 3099 3099 3099 3099 3097 3095 3093 3092 3090 3089 3088 3086 3083 3080 3077 3074 3071 3070 3067 3063 3059 3059 3054 3048 3042 3037 3033 3030 3026 3022
3087 3088 3088 3088 3089 3089 3087 3088 3087 3094 3095 3098 3100 3100 3099 3099 3100 3099 3098 3098 3096 3094 3093 3091 3089 3087 3085 3084 3081 3078 3077 3075 3073 3066 3064 3061 3059 3055 3048 3041 3037 3032 3027 3027 3021
3093 3092 3092 3092 3092 3090 3090 3089 3093 3096 3098 3100 3101 3100 3100 3100 3100 3099 3098 3097 3097 3096 3097 3093 3088 3087 3085 3083 3082 3077 3076 3075 3071 3067 3065 3062 3059 3055 3049 3043 3038 3034 3030 3026 3025
3099 3097 3095 3093 3093 3093 3094 3092 3095 3097 3100 3101 3101 3101 3100 3100 3101 3099 3099 3099 3098 3097 3096 3094 3089 3085 3084 3083 3081 3079 3077 3074 3072 3070 3064 3061 3059 3058 3052 3046 3043 3039 3035 3032 3029
3101 3100 3098 3097 3096 3097 3097 3098 3100 3101 3101 3102 3102 3102 3101 3101 3101 3100 3101 3101 3098 3097 3095 3094 3093 3087 3084 3082 3080 3079 3077 3074 3072 3072 3069 3067 3064 3059 3054 3051 3047 3043 3039 3038 3034
3104 3104 3102 3101 3102 3100 3100 3100 3101 3102 3102 3103 3103 3102 3101 3101 3101 3100 3100 3100 3098 3097 3095 3094 3090 3083 3082 3080 3079 3077 3074 3072 3071 3072 3069 3068 3064 3058 3056 3052 3050 3048 3044 3040 3038
3106 3105 3105 3105 3104 3103 3103 3103 3103 3103 3103 3103 3103 3102 3102 3101 3101 3099 3099 3098 3097 3096 3094 3093 3089 3083 3079 3080 3077 3075 3073 3071 3069 3068 3066 3067 3061 3059 3058 3056 3053 3050 3046 3043 3040
3107 3108 3107 3107 3107 3106 3105 3105 3105 3104 3103 3103 3103 3102 3102 3101 3100 3099 3098 3096 3095 3094 3093 3091 3087 3085 3082 3079 3076 3072 3072 3070 3068 3066 3064 3061 3058 3057 3056 3055 3053 3051 3047 3045 3043
3107 3107 3107 3107 3106 3106 3106 3106 3105 3105 3105 3104 3103 3102 3101 3100 3099 3097 3096 3094 3092 3091 3090 3088 3083 3081 3077 3073 3070 3067 3067 3066 3064 3063 3061 3058 3056 3055 3054 3053 3051 3050 3048 3047 3045
3105 3105 3104 3104 3105 3105 3105 3104 3103 3104 3104 3104 3103 3101 3100 3099 3098 3095 3094 3093 3091 3089 3087 3085 3081 3076 3068 3067 3067 3062 3061 3060 3059 3058 3056 3054 3053 3053 3052 3051 3049 3048 3048 3047 3045
3102 3101 3101 3101 3101 3102 3103 3102 3102 3103 3103 3101 3101 3100 3098 3097 3095 3093 3091 3090 3088 3087 3085 3083 3081 3077 3067 3065 3062 3058 3056 3056 3055 3054 3053 3051 3051 3050 3049 3048 3048 3047 3046 3045 3044